Weather in Gornozavodsk

Russia / Sakhalin District     46°33′38″N   141°50′48″E
temp.,
°C
wind,
m/s
gust,
m/s
humid.,
%
clouds,
%
prec.,
mm/h
press.,
hPa
HPBL,
m
15 june, tue
tue1523:00+9se228837 0.0 101245
02:00+10nne2388100 0.0 101286
05:00+10n3388100 0.0 101272
08:00+11ese128697 0.0 1012147
11:00+12ese248062 0.0 1013228
14:00+14ene247338 0.0 1012350
17:00+14nne247514 0.0 1013307
20:00+13e35780 0.0 1013210
16 june, wed
wed1623:00+9ese5108812 0.0 1014442
02:00+9ese510873 0.0 1013390
05:00+8e58875 0.0 1013329
08:00+10e46812 0.0 1013320
11:00+13se24730 0.0 1013229
14:00+14ssw34752 0.0 1012307
17:00+12sw348636 0.0 1011193
20:00+12ssw23900 0.0 101196
17 june, thu
thu1723:00+11se339131 0.0 101134
02:00+10se33915 0.0 101143
05:00+10se22910 0.0 101122
08:00+13sse34870 0.0 101078
11:00+13ssw458642 0.0 1010205
14:00+13sw348763 0.0 1010200
17:00+13sw338759 0.0 1009157
20:00+13sse229254 0.0 100873
18 june, fri
fri1823:00+13sse12929 0.0 100815
02:00+12e11939 0.0 100812
05:00+12ene229211 0.0 100712
08:00+13nne118713 0.0 100848
11:00+15wnw12809 0.0 1007325
14:00+15wnw328157 0.0 1006197
17:00+14nnw448858 0.1 1006208
20:00+14nne238417 0.0 1006128
19 june, sat
sat1923:00+12ese23824 0.0 100736
02:00+9e338734 0.0 100783
05:00+8e238715 0.0 100676
08:00+10ne13745 0.0 1007171
11:00+13nnw23695 0.0 1007294
14:00+13nnw347299 0.0 1007446
17:00+13nnw4476100 0.0 1007360
20:00+13ene357295 0.0 1007180